TimeMDT,TemperatureF,Dew PointF,Humidity,Sea Level PressureIn,VisibilityMPH,Wind Direction,Wind SpeedMPH,Gust SpeedMPH,PrecipitationIn,Events,Conditions,WindDirDegrees,DateUTC
12:54 AM,50.0,28.9,44,29.78,10.0,WNW,11.5,-,N/A,,Clear,300,2012-10-03 06:54:00
1:54 AM,52.0,30.9,45,29.77,10.0,WNW,8.1,-,N/A,,Clear,290,2012-10-03 07:54:00
2:54 AM,51.1,30.0,44,29.77,10.0,WSW,12.7,-,N/A,,Clear,250,2012-10-03 08:54:00
3:54 AM,46.0,30.0,54,29.79,10.0,WNW,11.5,-,N/A,,Clear,290,2012-10-03 09:54:00
4:54 AM,50.0,28.0,43,29.78,10.0,West,13.8,-,N/A,,Clear,260,2012-10-03 10:54:00
5:54 AM,48.9,28.0,44,29.82,10.0,West,11.5,-,N/A,,Clear,270,2012-10-03 11:54:00
6:54 AM,46.0,28.0,50,29.85,10.0,West,13.8,-,N/A,,Clear,260,2012-10-03 12:54:00
9:54 AM,75.0,21.9,14,29.82,10.0,West,9.2,-,N/A,,Clear,260,2012-10-03 15:54:00
10:54 AM,78.1,21.0,12,29.80,10.0,Variable,3.5,-,N/A,,Clear,0,2012-10-03 16:54:00
11:54 AM,81.0,17.1,9,29.77,10.0,NNW,8.1,-,N/A,,Clear,330,2012-10-03 17:54:00
12:54 PM,82.9,16.0,8,29.74,10.0,NW,16.1,24.2,N/A,,Clear,310,2012-10-03 18:54:00
1:54 PM,84.0,15.1,8,29.71,10.0,WNW,15.0,27.6,N/A,,Clear,300,2012-10-03 19:54:00
2:54 PM,84.9,10.9,6,29.70,10.0,WNW,17.3,27.6,N/A,,Clear,300,2012-10-03 20:54:00
3:54 PM,84.0,12.9,7,29.72,10.0,West,6.9,-,N/A,,Clear,280,2012-10-03 21:54:00
4:54 PM,84.0,16.0,8,29.72,10.0,WNW,13.8,20.7,N/A,,Clear,290,2012-10-03 22:54:00
5:54 PM,81.0,17.1,9,29.73,10.0,WNW,11.5,-,N/A,,Clear,290,2012-10-03 23:54:00
6:54 PM,68.0,18.0,15,29.79,10.0,WSW,6.9,-,N/A,,Clear,250,2012-10-04 00:54:00
7:54 PM,64.0,18.0,17,29.80,10.0,WSW,6.9,-,N/A,,Clear,250,2012-10-04 01:54:00
8:54 PM,69.1,19.9,15,29.81,10.0,West,10.4,-,N/A,,Clear,270,2012-10-04 02:54:00
9:54 PM,57.9,32.0,37,29.89,5.0,North,38.0,48.3,N/A,,Haze,360,2012-10-04 03:54:00
10:01 PM,57.2,32.0,38,30.12,6.0,NNE,32.2,48.3,N/A,,Haze,20,2012-10-04 04:01:00
10:38 PM,53.6,30.2,41,30.24,10.0,NNW,25.3,32.2,N/A,,Partly Cloudy,340,2012-10-04 04:38:00
10:54 PM,52.0,30.9,45,30.09,10.0,NNW,15.0,18.4,N/A,,Mostly Cloudy,330,2012-10-04 04:54:00
11:54 PM,48.0,30.0,50,30.12,9.0,NNE,5.8,-,N/A,,Overcast,30,2012-10-04 05:54:00